Location: Asheville, NC
(35.6000°N, 82.5500°W)
Time: 20:19:27

Vanguard 2 Rocket - Pass Details

Date: 14 December 2017
Orbit: 554 x 3327 km, 32.9° (Epoch: 23 March)

Event Time Altitude Azimuth Distance (km) Brightness Sun altitude
Rises 23:05:02 0° 276° (W) 6,044 11.4 -68.7°
Reaches altitude 10° 23:08:30 10° 275° (W) 5,321 10.9 -69.3°
Enters shadow 23:13:16 26° 272° (W) 4,436 10.3 -70.1°
Maximum altitude 23:25:58 76° 194° (SSW) 3,338 - -72.2°
Drops below altitude 10° 23:46:03 10° 113° (ESE) 5,990 - -75.0°
Sets 23:50:15 0° 112° (ESE) 6,799 - -75.5°
